Weather History for Colby, KS

Change the Weather History Date:

Sunday, September 30, 2012

  Actual Average (KGLD) Record (KGLD)
Temperature  
Mean Temperature 63 °F 58 °F  
Max Temperature 80 °F 73 °F 94 °F (1942)
Min Temperature 46 °F 44 °F 19 °F (1985)
Degree Days  
Heating Degree Days 2 8  
Month to date heating degree days 112  
Since 1 July heating degree days 124  
Cooling Degree Days 0 1  
Month to date cooling degree days 100  
Year to date cooling degree days 933  
Growing Degree Days 13 (Base 50)    
Moisture  
Dew Point 53 °F    
Average Humidity 75    
Maximum Humidity 100    
Minimum Humidity 34    
Precipitation  
Precipitation 0.00 in 0.04 in 1.50 in (1982)
Month to date precipitation 1.22  
Year to date precipitation 17.12  
Snow  
Snow - 0.00 in - ()
Month to date snowfall 0.4  
Since 1 July snowfall 0.4  
Since 1 September snowfall 0.4  
Snow Depth -    
Sea Level Pressure  
Sea Level Pressure 30.03 in    
Wind  
Wind Speed 6 mph ()    
Max Wind Speed 25 mph    
Max Gust Speed 31 mph    
Visibility 6.3 miles    
Events Fog , Rain    
T = Trace of Precipitation, MM = Missing Value Source: Averaged Metar Reports

Daily Weather History Graph

Daily Weather History Graph

Search for Another Location

Airport:

Trip Planner

Search our weather history database for the weather conditions in past years. The results will help you decide how hot, cold, wet, or windy it might be!

Date:

Astronomy

Sep. 30, 2012 Rise Set
Actual Time 7:39 AM CDT 7:27 PM CDT
Civil Twilight 7:13 AM CDT 7:54 PM CDT
Nautical Twilight 6:41 AM CDT 8:25 PM CDT
Astronomical Twilight 6:10 AM CDT 8:56 PM CDT
Moon 7:32 PM CDT (9/30) 8:12 AM CDT (9/30)
Length of Visible Light 12h 41m
Length of Day
11h 47m
Full, 100% of the Moon is Illuminated
Sep 30
Full
Oct 8
Last Quarter
Oct 15
New
Oct 21
First Quarter
Oct 29
Full

Hourly Weather History & Observations

Time (CDT) Temp. Windchill Dew Point Humidity Pressure Visibility Wind Dir Wind Speed Gust Speed Precip Events Conditions
12:15 AM 55.4 °F - 55.4 °F 100% 30.11 in 7.0 mi SSW 8.1 mph - N/A   Clear
12:55 AM 53.6 °F - 53.6 °F 100% 30.12 in 5.0 mi SW 6.9 mph - N/A   Clear
1:15 AM 53.6 °F - 53.6 °F 100% 30.10 in 4.0 mi SSW 5.8 mph - N/A   Clear
1:35 AM 51.8 °F - 51.8 °F 100% 30.11 in 3.0 mi SSW 5.8 mph - N/A   Clear
1:55 AM 51.8 °F - 51.8 °F 100% 30.11 in 3.0 mi SSW 6.9 mph - N/A   Clear
2:15 AM 51.8 °F - 51.8 °F 100% 30.11 in 2.5 mi SSW 5.8 mph - N/A   Clear
2:35 AM 50.0 °F - 50.0 °F 100% 30.11 in 1.5 mi SW 5.8 mph - N/A   Mist
2:55 AM 50.0 °F - 50.0 °F 100% 30.10 in 0.2 mi SW 5.8 mph - N/A Fog Fog
3:15 AM 50.0 °F - 50.0 °F 100% 30.09 in 0.2 mi SSW 5.8 mph - N/A Fog Fog
3:35 AM 50.0 °F - 50.0 °F 100% 30.09 in 0.2 mi SW 4.6 mph - N/A Fog Fog
3:55 AM 46.4 °F 44.3 °F 46.4 °F 100% 30.09 in 0.2 mi SSW 4.6 mph - N/A Fog Fog
4:15 AM 46.4 °F 44.3 °F 46.4 °F 100% 30.08 in 0.2 mi SSW 4.6 mph - N/A Fog Fog
4:35 AM 46.4 °F 44.3 °F 46.4 °F 100% 30.08 in 0.2 mi SSW 4.6 mph - N/A Fog Fog
4:55 AM 46.4 °F 43.5 °F 46.4 °F 100% 30.08 in 0.2 mi SW 5.8 mph - N/A Fog Fog
5:35 AM 46.4 °F 43.5 °F 46.4 °F 100% 30.07 in 0.2 mi SW 5.8 mph - N/A Fog Fog
5:55 AM 48.2 °F - 48.2 °F 100% 30.06 in 0.2 mi SSW 6.9 mph - N/A Fog Fog
6:15 AM 48.2 °F - 48.2 °F 100% 30.05 in 0.2 mi SSW 4.6 mph - N/A Fog Fog
6:35 AM 50.0 °F - 50.0 °F 100% 30.04 in 0.2 mi SSW 5.8 mph - N/A Fog Fog
6:55 AM 51.8 °F - 51.8 °F 100% 30.03 in 0.2 mi SSW 5.8 mph - N/A Fog Fog
7:15 AM 51.8 °F - 51.8 °F 100% 30.04 in 0.2 mi WSW 8.1 mph - N/A Fog Fog
7:35 AM 51.8 °F - 51.8 °F 100% 30.05 in 0.2 mi WSW 9.2 mph - N/A Fog Fog
7:55 AM 51.8 °F - 51.8 °F 100% 30.04 in 0.2 mi SW 9.2 mph - N/A Fog Fog
8:15 AM 51.8 °F - 51.8 °F 100% 30.04 in 0.2 mi SW 6.9 mph - N/A Fog Fog
8:35 AM 53.6 °F - 53.6 °F 100% 30.05 in 0.5 mi SW 8.1 mph - N/A Fog Fog
8:55 AM 53.6 °F - 53.6 °F 100% 30.06 in 1.0 mi WSW 8.1 mph - N/A   Overcast
9:15 AM 53.6 °F - 53.6 °F 100% 30.07 in 0.5 mi WSW 6.9 mph - N/A Fog Fog
9:35 AM 53.6 °F - 53.6 °F 100% 30.06 in 0.8 mi SW 8.1 mph - N/A   Overcast
9:55 AM 55.4 °F - 55.4 °F 100% 30.06 in 4.0 mi SSW 6.9 mph - N/A   Overcast
10:15 AM 59.0 °F - 59.0 °F 100% 30.06 in 7.0 mi SSW 9.2 mph - N/A   Mostly Cloudy
10:35 AM 62.6 °F - 59.0 °F 88% 30.06 in 10.0 mi SSW 8.1 mph - N/A   Scattered Clouds
10:55 AM 64.4 °F - 59.0 °F 83% 30.06 in 10.0 mi South 8.1 mph - N/A   Clear
11:35 AM 69.8 °F - 59.0 °F 68% 30.04 in 10.0 mi SSW 11.5 mph - N/A   Clear
11:55 AM 71.6 °F - 59.0 °F 64% 30.03 in 10.0 mi SSW 9.2 mph - N/A   Clear
12:15 PM 71.6 °F - 59.0 °F 64% 30.03 in 10.0 mi SW 9.2 mph - N/A   Clear
12:35 PM 73.4 °F - 59.0 °F 61% 30.03 in 10.0 mi South 8.1 mph - N/A   Clear
12:55 PM 73.4 °F - 57.2 °F 57% 30.02 in 10.0 mi SW 6.9 mph - N/A   Clear
1:15 PM 75.2 °F - 55.4 °F 50% 30.02 in 10.0 mi South 5.8 mph - N/A   Clear
1:35 PM 77.0 °F - 55.4 °F 47% 30.01 in 10.0 mi SSW 4.6 mph - N/A   Clear
1:55 PM 77.0 °F - 55.4 °F 47% 30.00 in 10.0 mi Calm Calm - N/A   Clear
2:15 PM 78.8 °F - 53.6 °F 42% 29.98 in 10.0 mi NW 3.5 mph - N/A   Clear
2:35 PM 78.8 °F - 53.6 °F 42% 29.98 in 10.0 mi South 4.6 mph - N/A   Clear
3:15 PM 80.6 °F - 51.8 °F 37% 29.96 in 10.0 mi East 6.9 mph - N/A   Mostly Cloudy
3:35 PM 80.6 °F - 50.0 °F 34% 29.97 in 10.0 mi North 25.3 mph 31.1 mph N/A   Overcast
3:55 PM 73.4 °F - 46.4 °F 38% 29.96 in 10.0 mi Calm Calm - N/A Rain Light Rain
4:15 PM 75.2 °F - 55.4 °F 50% 29.95 in 10.0 mi ENE 3.5 mph - N/A   Scattered Clouds
4:35 PM 77.0 °F - 55.4 °F 47% 29.95 in 10.0 mi Calm Calm - N/A   Clear
4:55 PM 78.8 °F - 50.0 °F 36% 29.95 in 10.0 mi NE 3.5 mph - N/A   Clear
5:15 PM 78.8 °F - 51.8 °F 39% 29.94 in 10.0 mi Calm Calm - N/A   Clear
5:35 PM 78.8 °F - 50.0 °F 36% 29.94 in 10.0 mi SE 4.6 mph - N/A   Clear
5:55 PM 77.0 °F - 51.8 °F 41% 29.94 in 10.0 mi South 10.4 mph - N/A   Clear
6:15 PM 77.0 °F - 53.6 °F 44% 29.95 in 10.0 mi South 8.1 mph - N/A   Scattered Clouds
6:35 PM 73.4 °F - 55.4 °F 53% 29.95 in 10.0 mi South 10.4 mph - N/A   Scattered Clouds
6:55 PM 71.6 °F - 55.4 °F 57% 29.95 in 10.0 mi SSW 5.8 mph - N/A   Scattered Clouds
7:15 PM 69.8 °F - 55.4 °F 60% 29.96 in 10.0 mi SSW 5.8 mph - N/A   Scattered Clouds
7:35 PM 68.0 °F - 55.4 °F 64% 29.96 in 10.0 mi SW 4.6 mph - N/A   Scattered Clouds
7:55 PM 64.4 °F - 53.6 °F 68% 29.97 in 10.0 mi WSW 12.7 mph - N/A   Scattered Clouds
8:15 PM 68.0 °F - 50.0 °F 52% 29.98 in 10.0 mi WNW 15.0 mph - N/A   Mostly Cloudy
8:35 PM 68.0 °F - 50.0 °F 52% 29.99 in 10.0 mi NW 18.4 mph 26.5 mph N/A Rain Light Rain
8:55 PM 68.0 °F - 50.0 °F 52% 29.99 in 10.0 mi NW 13.8 mph - N/A   Scattered Clouds
9:15 PM 66.2 °F - 51.8 °F 60% 29.99 in 10.0 mi NNW 13.8 mph - N/A   Clear
9:35 PM 64.4 °F - 50.0 °F 59% 30.00 in 10.0 mi NNE 5.8 mph - N/A   Clear
9:55 PM 62.6 °F - 50.0 °F 63% 30.01 in 10.0 mi NE 8.1 mph - N/A   Scattered Clouds
10:15 PM 62.6 °F - 51.8 °F 68% 30.02 in 10.0 mi North 5.8 mph - N/A   Clear
10:35 PM 60.8 °F - 51.8 °F 72% 30.03 in 10.0 mi North 8.1 mph - N/A   Clear
11:15 PM 60.8 °F - 55.4 °F 82% 30.03 in 10.0 mi SSE 8.1 mph - N/A   Clear
11:35 PM 60.8 °F - 55.4 °F 82% 30.03 in 10.0 mi SE 4.6 mph - N/A   Clear
11:55 PM 59.0 °F - 55.4 °F 88% 30.04 in 10.0 mi SE 5.8 mph - N/A   Clear